Home   Weather   Eucla   Past weeks
Flag for Australia

Past Weather in Eucla, Western Australia, Australia — Yesterday and Last 2 Weeks

Now
45 °F

Cool.


Feels Like: 42 °F
Forecast: 66 / 52 °F
Wind: 6 mph from North

Location: Eucla Amo

Current Time: May 25, 2019 at 5:53:03 am

Latest Report: May 25, 2019 at 3:45 am


Visibility: N/A

Pressure: 30.15 "Hg

Humidity: 96%

Dew Point: 44 °F

Location of EuclaLocation

Past Weather in Eucla — Graph

°F

Eucla Temperature Yesterday

Maximum temperature yesterday: 68 °F (at 11:45 am)
Minimum temperature yesterday: 47 °F (at 11:45 pm)
Average temperature yesterday: 58 °F

High & Low Weather Summary for the Past Weeks

 TemperatureHumidityPressure
High91 °F (May 23, 12:45 pm)96% (May 20, 3:45 am)30.56 "Hg (May 20, 3:45 am)
Low39 °F (May 20, 6:45 am)9% (May 23, 2:45 pm)29.88 "Hg (May 17, 3:45 pm)
Average59 °F65%30.21 "Hg
* Reported May 10 3:45 am — May 25 3:45 am, Eucla. Weather by CustomWeather, © 2019

Note: Actual official high and low records may vary slightly from our data, if they occured in-between our weather recording intervals... More about our weather records

Advertising

Eucla Weather History for the Previous 24 Hours

Scroll right to see more
 ConditionsComfort  
Time TempWeatherWind HumidityBarometerVisibility
3:45 am
Sat, May 25
45 °FCool.6 mph96%30.15 "HgN/A
2:45 am46 °FCool.6 mph96%30.14 "HgN/A
12:45 am46 °FCool.6 mph95%30.15 "HgN/A
11:45 pm
Fri, May 24
47 °FCool.6 mph94%30.17 "HgN/A
9:45 pm48 °FCool.No wind92%30.18 "HgN/A
8:45 pm51 °FCool.5 mph91%30.18 "HgN/A
6:45 pm58 °FCool.6 mph87%30.16 "HgN/A
5:45 pm59 °FCool.5 mph82%30.14 "HgN/A
3:45 pm65 °FPartly sunny.8 mph63%30.14 "Hg25 mi
2:45 pm67 °FMild.8 mph56%30.14 "HgN/A
12:45 pm68 °FMild.9 mph56%30.16 "HgN/A
11:45 am68 °FMild.8 mph55%30.17 "HgN/A
9:45 am65 °FPartly sunny.6 mph67%30.21 "Hg25 mi
8:45 am61 °FCool.5 mph83%30.20 "HgN/A
6:45 am51 °FCool.6 mph93%30.18 "HgN/A
5:45 am51 °FCool.6 mph91%30.16 "HgN/A
Weather by CustomWeather, © 2019

See weather overview